Location: Haarbr�ck
(51.6167°N, 10.3500°E)
Time: 10:57:31
(UTC+00:00)

Daily predictions for brighter satellites

Satellite Brightness Start Highest point End
(mag) Time Altitude Azimuth Time Altitude Azimuth Time Altitude Azimuth
Cosmos 2154 Rocket 4.1 16:26:00 10° S 16:32:15 87° E 16:38:31 10° N
Starlink R 3.1 16:31:31 10° W 16:34:49 68° N 16:38:07 10° E
Cosmos 1825 Rocket 3.8 16:31:43 10° SSE 16:35:52 47° E 16:40:02 10° NNE
Starlink K 3.1 16:33:51 10° W 16:37:09 69° N 16:40:27 10° E
SL-8 R/B 4.5 16:32:41 10° SW 16:37:16 45° SSE 16:41:52 10° E
Cosmos 2221 3.9 16:34:42 10° NNE 16:37:43 18° ENE 16:40:43 10° ESE
Cosmos 1271 Rocket 4.4 16:35:27 10° SW 16:38:54 33° WNW 16:42:24 10° N
Starlink M 3.1 16:36:11 10° WNW 16:39:29 69° N 16:42:47 10° E
Cosmos 2082 4.1 16:37:21 10° S 16:42:38 44° ESE 16:47:59 10° NE
Cosmos 2219 3.3 16:38:40 10° SSW 16:44:18 83° WNW 16:50:01 10° NNE
Cosmos-2242 2.9 16:40:14 10° N 16:44:33 74° ENE 16:48:50 10° SSE
Cosmos 1603 4.3 16:39:30 10° NNW 16:44:47 37° NE 16:49:59 10° ESE
YAOGAN 6 2.9 16:43:02 10° SE 16:46:32 45° ENE 16:50:00 10° N
Cosmos 2297 Rocket 2.2 16:40:55 10° SSW 16:46:34 78° ESE 16:52:15 10° NNE
Cosmos 2366 rocket 4.4 16:43:04 10° SSE 16:48:55 44° E 16:54:51 10° NNE
CZ-4B R/B 3.6 16:46:25 10° NNW 16:48:55 23° WNW 16:51:24 10° WSW
IRS-1C Rocket 4.4 16:44:00 10° SSE 16:49:15 77° WSW 16:54:34 10° NNW
Cosmos 1939 Rocket 4.0 16:47:32 10° ESE 16:50:40 22° ENE 16:53:51 10° N
Cosmos 2263 Rocket 3.9 16:49:53 10° ESE 16:52:05 12° E 16:54:02 11° ENE
NOAA 12 4.1 16:47:08 10° SSE 16:52:23 85° ENE 16:57:41 10° NNW
Cosmos 962 Rocket 4.5 16:47:31 10° S 16:53:39 82° E 16:59:54 10° NNE
Okean O Rocket 3.9 16:50:21 10° SSW 16:54:15 29° W 16:58:10 10° NNW
H-2A R/B 3.8 16:54:37 10° S 16:58:24 51° W 17:02:15 10° NNW
Cosmos 2227 Rocket 2.2 16:54:30 10° SSW 17:00:10 88° ESE 17:05:52 10° NNE
SKYMED 2 4.2 16:56:39 10° NNE 17:00:41 35° E 17:04:40 10° SSE
Meteor 1-27 4.5 16:56:37 10° N 17:01:56 44° ENE 17:07:15 10° SE
Cosmos 1140 Rocket 4.5 16:58:04 10° N 17:02:30 26° NE 17:06:54 10° ESE
Cosmos 1626 4.3 17:02:23 10° SW 17:05:35 27° WNW 17:08:50 10° N
Okean-O 2.6 17:01:46 10° SSE 17:06:12 87° ENE 17:10:40 10° NNW
Cosmos 1943 3.5 17:08:01 10° NNW 17:13:25 44° NE 17:18:49 10° ESE
Cosmos 2251 Rocket 3.8 17:10:11 10° NNW 17:15:29 72° WSW 17:20:48 10° SSE
Cosmos 1727 Rocket 3.9 17:10:01 10° N 17:16:12 66° ENE 17:22:19 10° SSE
YAOGAN 1 2.7 17:13:00 10° SE 17:17:12 51° ENE 17:21:25 10° N
Starlink T 2.9 17:14:52 10° WNW 17:18:08 86° NNE 17:20:17 20° ESE
Starlink N 2.9 17:17:00 10° WNW 17:20:15 87° NNE 17:22:20 21° ESE
SL-8 Rocket 4.0 17:14:42 10° S 17:21:00 87° ESE 17:27:18 10° N
Starlink AS 2.6 17:18:21 10° WNW 17:21:17 90° W 17:22:58 23° ESE
Starlink BA 2.6 17:18:33 10° WNW 17:21:30 90° SSW 17:23:10 23° ESE
Starlink AU 2.6 17:18:47 10° WNW 17:21:44 89° SE 17:23:24 23° ESE
Starlink AT 2.6 17:19:01 10° WNW 17:21:58 89° S 17:23:37 23° ESE
Starlink BB 2.6 17:19:14 10° WNW 17:22:11 89° SSE 17:23:49 23° ESE
Starlink BC 2.6 17:19:28 10° WNW 17:22:25 89° SSW 17:24:03 24° ESE
Starlink Q 2.9 17:19:21 10° WNW 17:22:37 89° NNE 17:24:35 22° ESE
Starlink BK 2.6 17:19:41 10° WNW 17:22:38 89° SSW 17:24:15 24° ESE
Starlink AY 2.6 17:19:54 10° WNW 17:22:50 89° SW 17:24:28 24° ESE
Starlink AW 2.6 17:20:09 10° WNW 17:23:05 89° SSW 17:24:42 24° ESE
Starlink BJ 2.6 17:20:21 10° WNW 17:23:18 88° S 17:24:54 24° ESE
Starlink AV 2.6 17:20:35 10° WNW 17:23:32 88° S 17:25:08 24° ESE
Starlink BD 2.6 17:20:49 10° WNW 17:23:46 88° SSW 17:25:21 24° ESE
Starlink BE 2.6 17:20:59 10° WNW 17:23:58 88° SSW 17:25:34 24° ESE
Starlink BM 2.6 17:21:16 10° WNW 17:24:12 88° SSW 17:25:46 25° ESE
Starlink AX 2.6 17:21:30 10° WNW 17:24:26 87° SSW 17:26:00 25° ESE
Starlink BH 2.6 17:21:43 10° WNW 17:24:39 87° S 17:26:12 25° ESE
Starlink P 2.9 17:21:33 10° WNW 17:24:48 90° WSW 17:26:43 23° ESE
Starlink AZ 2.6 17:21:55 10° WNW 17:24:52 87° SSW 17:26:25 25° ESE
USA 267 3.3 17:19:15 15° ENE 17:24:53 76° SSE 17:31:26 10° SW
Envisat 3.7 17:20:00 10° S 17:25:00 58° W 17:30:02 10° NNW
Starlink BG 2.6 17:22:10 10° WNW 17:25:06 87° SSW 17:26:38 25° ESE
Cosmos 1328 3.7 17:21:12 10° S 17:25:14 83° E 17:29:16 10° NNE
Starlink BF 2.6 17:22:23 10° WNW 17:25:20 87° SSW 17:26:51 25° ESE
Starlink BL 2.6 17:22:34 10° WNW 17:25:32 87° SSW 17:27:05 25° ESE
H-2A R/B 3.2 17:24:06 19° E 17:25:41 21° NE 17:29:32 10° N
Starlink AH 2.6 17:22:51 10° WNW 17:25:47 86° SSW 17:27:18 26° ESE
Starlink AC 2.6 17:23:04 10° WNW 17:26:01 86° SSW 17:27:30 26° ESE
Starlink X 2.6 17:23:18 10° WNW 17:26:14 86° SSW 17:27:43 26° ESE
Starlink AE 2.7 17:23:28 10° WNW 17:26:26 86° SSW 17:27:59 26° ESE
Starlink Z 2.6 17:23:45 10° WNW 17:26:41 86° SSW 17:28:10 26° ESE
Starlink AK 2.6 17:23:58 10° WNW 17:26:54 86° SSW 17:28:22 26° ESE
Starlink AQ 2.6 17:24:02 10° WNW 17:26:59 86° SSW 17:28:28 26° ESE
Starlink U 2.9 17:23:45 10° WNW 17:27:01 88° SSW 17:28:50 24° ESE
Starlink AL 2.6 17:24:11 10° WNW 17:27:08 85° S 17:28:35 27° ESE
CSL-04 Debris 4.1 17:22:01 10° SSE 17:27:21 65° ENE 17:32:45 10° N
Starlink AD 2.6 17:24:25 10° WNW 17:27:21 85° SSW 17:28:48 27° ESE
Starlink Y 2.6 17:24:52 10° WNW 17:27:48 85° SSW 17:29:15 27° ESE
Starlink AG 2.6 17:25:05 10° WNW 17:28:02 85° SSW 17:29:27 27° ESE
Starlink W 2.7 17:25:16 10° WNW 17:28:15 85° SSW 17:29:42 27° ESE
Starlink AJ 2.6 17:25:32 10° WNW 17:28:29 84° SSW 17:29:53 27° ESE
Starlink AM 2.6 17:25:58 10° WNW 17:28:55 84° SSW 17:30:18 28° ESE
Starlink AP 2.6 17:26:12 10° WNW 17:29:09 84° SSW 17:30:32 28° ESE
FengYun 1-2 T 4.5 17:23:32 10° SSE 17:29:11 78° WSW 17:34:54 10° NNW
Starlink B 2.9 17:25:58 10° WNW 17:29:14 87° SSW 17:30:58 25° ESE
Starlink AA 2.6 17:26:26 10° WNW 17:29:23 84° SSW 17:30:45 28° ESE
Starlink AF 2.6 17:26:40 10° WNW 17:29:36 83° SSW 17:30:58 28° ESE
Starlink AB 2.7 17:26:54 10° WNW 17:29:49 83° SSW 17:31:11 29° ESE
Starlink AN 2.6 17:27:07 10° WNW 17:30:03 83° SSW 17:31:24 29° ESE
ISS -3.8 17:28:45 10° WSW 17:32:09 82° SSE 17:33:40 30° E
Cosmos 44 3.3 17:28:55 10° SW 17:33:24 66° NW 17:36:50 16° NE
CZ-4 R/B 1.4 17:30:08 10° SSE 17:34:15 89° W 17:38:29 10° NNW
HJ-1C 4.4 17:37:55 27° NE 17:37:55 27° NE 17:40:15 10° N
Cosmos 2084 4.1 17:33:06 10° NW 17:37:17 39° NNE 17:38:59 27° ENE
ATLAS CENTAUR R/B 3.3 17:37:14 10° WNW 17:40:45 29° WSW 17:44:03 10° S
ATLAS 5 CENTAUR R/B 3.5 17:38:14 10° NW 17:42:06 22° N 17:44:44 16° NE
Cosmos 407 Rocket 3.5 17:37:36 10° NNW 17:42:52 61° ENE 17:48:02 10° SE
NOSS 3-2 (A) 4.4 17:39:39 10° SSE 17:44:13 24° ESE 17:45:13 23° E
Cosmos 1190 Rocket 4.1 17:39:27 10° NNW 17:44:42 56° ENE 17:49:55 10° SE
CSL-04 Rocket 3.7 17:39:39 10° SSE 17:45:12 86° ENE 17:50:49 10° NNW
Cosmos 1455 4.2 17:42:06 10° NNW 17:45:29 30° W 17:48:48 10° SSW
Starlink D 3.0 17:42:23 10° WNW 17:45:40 75° SSW 17:46:48 37° ESE
Cosmos 1703 3.8 17:43:03 10° SSW 17:46:59 60° WNW 17:50:57 10° N
Cosmos 2082 Rocket 4.3 17:45:45 10° N 17:47:24 11° NNE 17:49:01 10° NNE
Starlink S 3.1 17:44:42 10° WNW 17:47:59 73° SSW 17:49:02 39° SE
Cosmos 1953 Rocket 4.5 17:43:40 10° SSW 17:48:03 52° WNW 17:52:26 10° N
Meteor 2-2 Rocket 4.3 17:42:49 10° N 17:48:54 69° ENE 17:54:52 10° SSE
COSMO-SKYMED 1 2.6 17:44:31 10° NNE 17:48:55 83° WNW 17:53:14 10° SSW
Cosmos 1842 Rocket 3.6 17:44:53 10° NNW 17:49:24 84° W 17:53:53 10° S
Starlink AR 2.9 17:47:21 10° WNW 17:50:01 56° SSW 17:50:26 48° SSE
Starlink C 3.1 17:46:58 10° WNW 17:50:15 71° SSW 17:51:13 41° SE
Starlink E 3.1 17:49:18 10° WNW 17:52:35 69° SSW 17:53:28 43° SE
Starlink J 3.2 17:51:38 10° WNW 17:54:55 67° SSW 17:55:42 46° SE
Cosmos 1821 Rocket 4.1 17:49:19 10° SSE 17:55:28 55° E 18:01:34 10° NNE
Starlink V 3.2 17:53:57 10° WNW 17:57:13 66° SSW 17:57:56 48° SE
Cosmos 676 Rocket 4.3 17:52:08 10° NNW 17:57:19 46° ENE 17:59:31 30° ESE
Starlink H 3.2 17:56:18 10° WNW 17:59:33 64° SSW 18:00:12 49° SSE
USA 234 4.3 17:55:34 10° SSE 18:01:44 43° SW 18:07:55 10° WNW
Starlink F 3.3 17:58:38 10° WNW 18:01:54 62° SSW 18:02:27 51° SSE
Meteor 2-12 Rocket 4.3 17:55:51 10° S 18:01:55 82° E 18:08:00 10° NNE
Starlink G 3.3 18:00:58 10° WNW 18:04:14 60° SSW 18:04:42 52° SSE
ERBS 3.4 18:01:16 10° WNW 18:04:18 32° N 18:04:33 32° N
USA 116 2.9 18:05:44 84° ENE 18:05:47 84° ESE 18:08:54 10° SSW
ADEOS Rocket 3.4 17:59:17 10° NNE 18:05:57 54° E 18:13:12 10° S
Starlink L 3.3 18:03:18 10° WNW 18:06:33 58° SSW 18:06:57 53° S
MOS 1 4.4 18:02:55 15° SE 18:07:24 52° ENE 18:12:55 10° N
IRS-1A Rocket 4.2 18:02:14 10° SSE 18:07:51 63° ENE 18:13:23 10° N
Ariane Rocket 2.9 18:03:16 10° SSE 18:08:18 66° ENE 18:13:22 10° N
Starlink A 3.4 18:05:40 10° WNW 18:08:55 57° SSW 18:09:13 54° S
Starlink R 3.4 18:08:01 10° WNW 18:11:16 55° SSW 18:11:29 53° S
In-Cosmos 22 Rocket 4.4 18:06:47 10° SSE 18:12:04 43° E 18:13:16 38° ENE
CZ-2D R/B 3.8 18:08:19 10° S 18:12:07 59° W 18:15:58 10° NNW
Starlink K 3.5 18:10:22 10° WNW 18:13:36 53° SSW 18:13:44 53° SSW
Cosmos 1624 Rocket 4.3 18:08:51 10° S 18:13:49 42° ESE 18:13:51 42° ESE
Cosmos 1869 3.1 18:11:00 10° N 18:15:01 86° E 18:18:28 13° S
Cosmos 2221 3.0 18:11:27 10° NNW 18:15:41 60° W 18:19:55 10° S
Cosmos 614 Rocket 4.2 18:10:31 10° NNW 18:15:43 73° WSW 18:20:56 10° SSE
Starlink M 3.5 18:12:42 10° WNW 18:15:56 52° SSW 18:15:59 52° SSW
Cosmos 967 Rocket 4.4 18:11:29 10° NW 18:18:01 73° NE 18:21:05 33° SE
BREEZE-M DEB (TANK) 4.2 18:02:45 10° W 18:19:14 73° SSW 18:21:12 40° ESE
Cosmos 2123 Rocket 3.9 18:13:08 10° N 18:19:27 67° ENE 18:25:41 10° SSE
SL-8 R/B 3.9 18:14:45 10° W 18:19:30 60° S 18:20:30 48° SE
Cosmos 1076 Rocket 3.3 18:19:55 10° S 18:24:11 71° ESE 18:24:11 71° ESE
Cosmos 44 Rocket 3.1 18:19:34 10° SW 18:24:22 81° SE 18:25:12 60° NE
Cosmos 2227 4.1 18:19:11 10° SSW 18:24:53 73° ESE 18:27:08 38° NE
USA 238 DEB 3.8 18:18:33 10° SSW 18:24:56 49° ESE 18:26:25 43° E
USA 238 3.8 18:18:41 10° SSW 18:25:03 49° ESE 18:26:28 43° E
Cosmos 1934 Rocket 3.9 18:19:12 10° S 18:25:06 57° E 18:31:01 10° NNE
Cosmos 1939 Rocket 4.0 18:21:34 10° S 18:25:22 44° W 18:29:15 10° NNW
BREEZE-M DEB (TANK) 3.8 18:25:01 10° WSW 18:26:22 32° SW 18:26:22 32° SW
ARGOS 3.2 18:27:20 52° E 18:27:38 53° ENE 18:32:53 10° N
Cosmos 1603 4.5 18:23:38 10° NW 18:29:08 52° WSW 18:34:33 10° S
Cosmos 2056 Rocket 3.6 18:24:47 10° S 18:29:44 55° ESE 18:29:44 55° ESE
Cosmos 2297 Rocket 3.9 18:26:26 10° W 18:31:14 27° NW 18:35:53 11° NNE
CZ-2C R/B 3.3 18:32:12 54° ENE 18:32:24 54° ENE 18:37:59 10° N
Cosmos 2239 Rocket 4.4 18:26:28 10° S 18:32:48 87° E 18:39:11 10° N
Cosmos 2263 Rocket 2.0 18:29:25 10° SSW 18:34:57 69° ESE 18:35:48 59° ENE
Meteor 2-20 4.4 18:32:36 10° N 18:38:34 55° ENE 18:38:34 55° ENE
Cosmos 1140 Rocket 3.8 18:39:33 10° NNW 18:44:47 65° WSW 18:47:38 27° S
Cosmos 2227 Rocket 4.1 18:40:21 10° W 18:44:59 25° NW 18:49:08 12° NNE
Cosmos 2058 4.4 18:41:57 10° SSW 18:43:58 28° SSW 18:43:58 28° SSW
ATLAS 5 CENTAUR R/B 3.8 18:42:35 10° NW 18:47:23 80° SW 19:07:16 10° SE
Cosmos 1535 Rocket 4.4 18:43:07 10° S 18:49:27 83° E 18:55:54 10° NNE
SL-24 R/B 4.4 18:50:26 76° SSE 18:50:51 89° WSW 18:56:22 10° NNW
Cosmos 1833 Rocket 4.4 18:47:13 10° NNW 18:49:56 19° NNE 18:49:56 19° NNE
Cosmos 1943 4.3 18:52:12 10° NW 18:57:28 41° WSW 19:02:43 10° S
H-2A R/B 2.1 19:04:42 74° W 19:04:42 74° W 19:09:48 10° NNW
USA 267 3.5 19:06:35 53° NNE 19:07:52 63° NNW 19:14:17 10° W
ISS -0.9 19:05:34 10° W 19:06:37 19° W 19:06:37 19° W
CENTAUR R/B 4.1 19:18:51 10° SSW 19:20:42 21° SSW 19:20:42 21° SSW
ATLAS 5 CENTAUR R/B 3.6 19:23:25 10° NW 19:26:16 27° NNW 19:26:16 27° NNW
Cosmos 2082 Rocket 4.2 19:29:09 10° NNW 19:30:52 17° N 19:30:52 17° N
NOSS 3-2 (A) 3.9 19:28:18 10° SW 19:32:40 54° SW 19:32:40 54° SW
ADEOS Rocket 4.4 19:45:09 10° N 19:51:20 41° WNW 19:58:04 10° SW
Cosmos 2263 Rocket 4.1 20:14:30 10° WSW 20:17:33 25° WNW 20:17:33 25° WNW
